COSMOS 1375 DEB

Satellite information

Favourite Embed

Satellite Type and Status

DEBRISIN ORBIT

Key statistics

Satellite COSMOS 1375 DEB at a glance.

Uptime

15680

Days in orbit

Revolutions

≈ 13.8

Per day

Orbit

LEO

Low Earth Orbit

Inclination

65.8

Latest

Satellite identification and parameters

Extended collection of information and parameters for COSMOS 1375 DEB.

Object identification

Identified? True

Debris? True

Object name: COSMOS 1375 DEB

International designator: 1982-055AV

Object number (NORAD): 17803

Object ID (CCSDS): 17803

Country: COMMONWEALTH OF INDEPENDENT STATES (CIS)

Current information (Y/N): Y

RCS size: SMALL

Orbital parameters

Period: 104.298 minutes

Inclination: 65.8301 deg

SMA: 7339.685 km

Apoapsis: 985.992 km

Periapsis: 937.108 km

RAAN: 153.2976 deg

Eccentricy: 0.0033301

Argument of periapsis: 57.274 deg

Mean anomaly: 57.0488 deg

Mean motion: 13.80659682 rev/day

Mean motion (dot): 0.00000199 rev/day2

B* drag term: 0.00026646 1/REarth

Two-line elements (TLE)

Creation date: May 10, 2025, 5:27 p.m.

Reference frame: TEME

Reference center: EARTH

Epoch: May 10, 2025, 10:14 a.m. UTC

TLE line 0: 0 COSMOS 1375 DEB

TLE line 1: 1 17803U 82055AV 25130.42690740 .00000199 00000-0 26646-3 0 9998

TLE line 2: 2 17803 65.8301 153.2976 0033301 57.2740 57.0488 13.80659682988276

Live tracking on map

Real-time ground track for satellite COSMOS 1375 DEB.

In-orbit conjunctions

A list of the most updated potential collisions computed for object COSMOS 1375 DEB.

Target Orbit TCA Probability of collision Miss distance Type
CZ-4C R/B LEO 2025-01-24 17:32:59 0.0001623122 983.0 (m) ROCKET BODY

Associated space launch

ASAT target satellite

COSMOS 1375 DEB was lifted into orbit during the mission ‘Kosmos-3M | DS-P1-M 16’, on board a Kosmos-3M space rocket.

The launch took place on June 6, 1982, 5:10 p.m. from 132/2.

For more information about the launch, click the button.

Launch to space Kosmos-3M | DS-P1-M 16
Kosmos-3M | DS-P1-M 16

Agency: N/A

Status: Launch Successful

Launch date: June 6, 1982, 5:10 p.m. UTC

Rocket: Kosmos-3M

Launch pad: 132/2

Location: Plesetsk Cosmodrome, Russian Federation

...

Latest news about this satellite

There are no fresh news available about this satellite. Check back as we update our databases every day.


Newsletter sign-up

Weekly statistics, charts and insights to help you stay on top of the space industry.